Location: La Pernelle
(49.6188°N, 1.2999°W)
Time: 12:19:56
(UTC+00:00)

Cosmos 1954 Rocket - Pass Details

Date: 31 October 2021
Orbit: 751 x 782 km, 74.0° (Epoch: 26 November)

Event Time Altitude Azimuth Distance (km) Brightness Sun altitude
Rises 17:23:10 0° 341° (NNW) 3,244 7.3 -6.8°
Reaches altitude 10° 17:25:52 10° 353° (N) 2,319 6.4 -7.2°
Maximum altitude 17:30:24 29° 53° (NE) 1,408 4.9 -8.0°
Drops below altitude 10° 17:34:57 10° 112° (ESE) 2,324 6.0 -8.7°
Enters shadow 17:37:30 - 123° (ESE) 3,197 6.8 -9.1°
